| time (UTC) | temp C | wind direction | speed KPH | gust KPH | rain 1hr cm | rain 24hr cm | rain mn cm | humidity % | barometer mb |
| 20260831214508 | 15 | 198 | 0.0 | 0.0 | 0.00 | 0.79 | 0.79 | 78 | 1017.2 |
| 20260831213001 | 15 | 198 | 0.0 | 0.0 | 0.00 | 0.79 | 0.79 | 79 | 1017.1 |
| 20260831211600 | 15 | 198 | 0.0 | 0.0 | 0.00 | 0.79 | 0.79 | 79 | 1017.0 |
| 20260831210057 | 15 | 198 | 0.0 | 0.0 | 0.00 | 0.79 | 0.79 | 79 | 1016.8 |
| 20260831204604 | 16 | 198 | 0.0 | 0.0 | 0.00 | 0.79 | 0.79 | 79 | 1016.7 |
| 20260831203126 | 16 | 198 | 0.0 | 0.0 | 0.00 | 0.79 | 0.79 | 80 | 1016.7 |
| 20260831201604 | 16 | 198 | 0.0 | 0.0 | 0.00 | 0.79 | 0.79 | 80 | 1016.4 |
| 20260831200135 | 16 | 198 | 0.0 | 0.0 | 0.00 | 0.79 | 0.79 | 80 | 1016.2 |
| 20260831194556 | 16 | 198 | 0.0 | 0.0 | 0.00 | 0.79 | 0.79 | 80 | 1016.0 |
| 20260831193049 | 17 | 198 | 0.0 | 0.0 | 0.00 | 0.79 | 0.79 | 80 | 1015.8 |
| 20260831191548 | 17 | 198 | 0.0 | 0.0 | 0.00 | 0.79 | 0.79 | 80 | 1015.6 |
| 20260831190044 | 17 | 198 | 0.0 | 0.0 | 0.00 | 0.79 | 0.79 | 79 | 1015.2 |
| 20260831184546 | 17 | 198 | 0.0 | 0.0 | 0.00 | 0.79 | 0.79 | 78 | 1015.1 |
| 20260831183040 | 18 | 198 | 0.0 | 0.0 | 0.00 | 0.79 | 0.79 | 77 | 1014.9 |
| 20260831181548 | 18 | 190 | 0.0 | 0.0 | 0.00 | 0.79 | 0.79 | 77 | 1014.6 |
| 20260831180037 | 18 | 208 | 0.0 | 0.0 | 0.00 | 0.79 | 0.79 | 76 | 1014.2 |
| 20260831174540 | 18 | 200 | 0.0 | 0.0 | 0.00 | 0.79 | 0.79 | 76 | 1014.1 |
| 20260831173034 | 19 | 208 | 0.0 | 0.0 | 0.00 | 0.79 | 0.79 | 75 | 1014.0 |
| 20260831171532 | 19 | 198 | 0.0 | 9.7 | 0.00 | 0.79 | 0.79 | 75 | 1013.9 |
| 20260831170037 | 19 | 219 | 0.0 | 14.5 | 0.00 | 0.79 | 0.79 | 75 | 1013.7 |
| 20260831164529 | 19 | 200 | 0.0 | 0.0 | 0.00 | 0.79 | 0.79 | 75 | 1013.5 |
| 20260831163028 | 18 | 213 | 0.0 | 0.0 | 0.00 | 0.79 | 0.79 | 77 | 1013.5 |
| 20260831161526 | 18 | 198 | 0.0 | 14.5 | 0.00 | 0.79 | 0.79 | 77 | 1013.2 |
| 20260831160026 | 18 | 221 | 0.0 | 0.0 | 0.00 | 0.79 | 0.79 | 78 | 1013.0 |
| 20260831154524 | 18 | 196 | 0.0 | 0.0 | 0.00 | 0.79 | 0.79 | 77 | 1013.0 |
| 20260831153023 | 18 | 197 | 0.0 | 0.0 | 0.00 | 0.79 | 0.79 | 79 | 1012.9 |
| 20260831151522 | 18 | 202 | 0.0 | 0.0 | 0.00 | 0.79 | 0.79 | 79 | 1012.7 |
| 20260831150021 | 17 | 197 | 0.0 | 0.0 | 0.10 | 0.79 | 0.79 | 78 | 1012.6 |
| 20260831144520 | 17 | 191 | 0.0 | 0.0 | 0.46 | 0.79 | 0.79 | 76 | 1012.2 |
| 20260831143020 | 16 | 201 | 0.0 | 0.0 | 0.46 | 0.79 | 0.79 | 76 | 1012.0 |
| 20260831141519 | 16 | 201 | 0.0 | 14.5 | 0.46 | 0.79 | 0.79 | 78 | 1012.3 |
| 20260831140031 | 17 | 199 | 0.0 | 0.0 | 0.36 | 0.69 | 0.69 | 78 | 1012.3 |
| 20260831134514 | 20 | 147 | 0.0 | 0.0 | 0.00 | 0.33 | 0.33 | 69 | 1011.2 |
| 20260831133014 | 21 | 132 | 0.0 | 0.0 | 0.00 | 0.33 | 0.33 | 65 | 1011.3 |
| 20260831131514 | 21 | 198 | 0.0 | 0.0 | 0.00 | 0.33 | 0.33 | 59 | 1011.4 |
| 20260831130013 | 21 | 244 | 0.0 | 0.0 | 0.03 | 0.33 | 0.33 | 60 | 1010.9 |
| 20260831124511 | 21 | 115 | 0.0 | 0.0 | 0.03 | 0.33 | 0.33 | 62 | 1010.9 |
| 20260831123010 | 21 | 196 | 0.0 | 3.2 | 0.03 | 0.33 | 0.33 | 64 | 1011.1 |
| 20260831121510 | 21 | 219 | 0.0 | 0.0 | 0.03 | 0.33 | 0.33 | 70 | 1011.1 |
| 20260831120015 | 22 | 232 | 0.0 | 0.0 | 0.00 | 0.30 | 0.30 | 61 | 1011.0 |
| 20260831114506 | 21 | 205 | 0.0 | 0.0 | 0.00 | 0.30 | 0.30 | 67 | 1011.0 |
| 20260831113003 | 21 | 252 | 0.0 | 0.0 | 0.00 | 0.30 | 0.30 | 67 | 1011.2 |
| 20260831111501 | 21 | 246 | 0.0 | 0.0 | 0.00 | 0.30 | 0.30 | 73 | 1011.3 |
| 20260831110105 | 21 | 312 | 0.0 | 0.0 | 0.00 | 0.30 | 0.30 | 64 | 1011.2 |
| 20260831104604 | 20 | 190 | 0.0 | 0.0 | 0.00 | 0.30 | 0.30 | 70 | 1011.0 |
| 20260831103053 | 20 | 180 | 0.0 | 0.0 | 0.00 | 0.30 | 0.30 | 73 | 1011.1 |
| 20260831101555 | 19 | 170 | 0.0 | 0.0 | 0.00 | 0.30 | 0.30 | 73 | 1011.1 |
| 20260831100052 | 19 | 191 | 0.0 | 0.0 | 0.00 | 0.30 | 0.30 | 76 | 1011.1 |
| 20260831094548 | 18 | 191 | 0.0 | 0.0 | 0.03 | 0.30 | 0.30 | 78 | 1011.3 |
| 20260831093053 | 18 | 193 | 0.0 | 0.0 | 0.08 | 0.30 | 0.30 | 79 | 1011.5 |
| 20260831091546 | 17 | 192 | 0.0 | 0.0 | 0.08 | 0.30 | 0.30 | 79 | 1011.7 |
| 20260831090057 | 18 | 210 | 0.0 | 0.0 | 0.05 | 0.28 | 0.28 | 79 | 1011.6 |
| 20260831084555 | 18 | 222 | 0.0 | 0.0 | 0.05 | 0.28 | 0.28 | 78 | 1011.3 |
| 20260831083044 | 18 | 205 | 0.0 | 0.0 | 0.00 | 0.23 | 0.23 | 73 | 1011.1 |
| 20260831081543 | 18 | 234 | 0.0 | 0.0 | 0.00 | 0.23 | 0.23 | 75 | 1011.1 |
| 20260831080042 | 19 | 260 | 0.0 | 0.0 | 0.00 | 0.23 | 0.23 | 76 | 1011.1 |
| 20260831074541 | 18 | 49 | 0.0 | 0.0 | 0.00 | 0.23 | 0.23 | 80 | 1011.2 |
| 20260831073038 | 18 | 46 | 0.0 | 0.0 | 0.00 | 0.23 | 0.23 | 79 | 1011.2 |
| 20260831071537 | 17 | 73 | 0.0 | 0.0 | 0.00 | 0.23 | 0.23 | 78 | 1011.3 |
| 20260831070044 | 17 | 73 | 0.0 | 0.0 | 0.00 | 0.23 | 0.23 | 77 | 1011.3 |
| 20260831064536 | 17 | 73 | 0.0 | 0.0 | 0.00 | 0.23 | 0.23 | 77 | 1011.2 |
| 20260831063032 | 17 | 73 | 0.0 | 0.0 | 0.00 | 0.23 | 0.23 | 77 | 1011.1 |
| 20260831061532 | 16 | 73 | 0.0 | 0.0 | 0.00 | 0.23 | 0.23 | 76 | 1011.1 |
| 20260831060028 | 16 | 73 | 0.0 | 0.0 | 0.00 | 0.23 | 0.23 | 75 | 1011.0 |
| 20260831054525 | 15 | 73 | 0.0 | 0.0 | 0.00 | 0.23 | 0.23 | 75 | 1010.8 |
| 20260831053022 | 15 | 73 | 0.0 | 0.0 | 0.00 | 0.23 | 0.23 | 76 | 1010.8 |
| 20260831051532 | 15 | 73 | 0.0 | 0.0 | 0.00 | 0.23 | 0.23 | 76 | 1010.9 |
| 20260831050019 | 15 | 73 | 0.0 | 0.0 | 0.00 | 0.23 | 0.23 | 76 | 1010.9 |
| 20260831044521 | 15 | 73 | 0.0 | 0.0 | 0.00 | 0.23 | 0.23 | 76 | 1010.8 |
| 20260831043016 | 16 | 73 | 0.0 | 0.0 | 0.00 | 0.23 | 0.23 | 76 | 1010.8 |
| 20260831041514 | 16 | 73 | 0.0 | 0.0 | 0.00 | 0.23 | 0.23 | 76 | 1010.7 |
| 20260831040013 | 16 | 73 | 0.0 | 0.0 | 0.00 | 0.23 | 0.23 | 76 | 1010.5 |
| 20260831034512 | 16 | 73 | 0.0 | 0.0 | 0.00 | 0.23 | 0.23 | 76 | 1010.4 |
| 20260831033016 | 16 | 73 | 0.0 | 0.0 | 0.10 | 0.23 | 0.23 | 76 | 1010.4 |
| 20260831031514 | 16 | 73 | 0.0 | 0.0 | 0.23 | 0.23 | 0.23 | 77 | 1010.4 |
| 20260831030007 | 17 | 73 | 0.0 | 0.0 | 0.23 | 0.23 | 0.23 | 78 | 1010.4 |
| 20260831024505 | 17 | 73 | 0.0 | 0.0 | 0.23 | 0.23 | 0.23 | 79 | 1010.4 |
| 20260831023001 | 17 | 73 | 0.0 | 0.0 | 0.13 | 0.13 | 0.13 | 80 | 1010.5 |
| 20260831021600 | 17 | 88 | 0.0 | 0.0 | 0.00 | 0.00 | 0.00 | 78 | 1010.3 |
| 20260831020111 | 17 | 88 | 0.0 | 0.0 | 0.00 | 0.00 | 0.00 | 77 | 1010.2 |
| 20260831014557 | 17 | 168 | 0.0 | 0.0 | 0.00 | 0.00 | 0.00 | 76 | 1010.0 |
| 20260831013100 | 17 | 196 | 0.0 | 0.0 | 0.00 | 0.00 | 0.00 | 76 | 1010.1 |
| 20260831011556 | 17 | 196 | 0.0 | 0.0 | 0.00 | 0.00 | 0.00 | 75 | 1010.2 |
| 20260831010053 | 17 | 198 | 0.0 | 0.0 | 0.00 | 0.03 | 0.00 | 75 | 1010.2 |
| 20260831004556 | 17 | 198 | 0.0 | 0.0 | 0.00 | 0.03 | 0.00 | 75 | 1010.4 |
| 20260831003052 | 18 | 198 | 0.0 | 0.0 | 0.00 | 0.03 | 0.00 | 74 | 1010.4 |
| 20260831001551 | 18 | 198 | 0.0 | 0.0 | 0.00 | 0.03 | 0.00 | 74 | 1010.4 |
| 20260831000050 | 18 | 198 | 0.0 | 0.0 | 0.00 | 0.03 | 0.00 | 74 | 1010.5 |
| 20260830234549 | 18 | 198 | 0.0 | 0.0 | 0.00 | 0.03 | 0.00 | 74 | 1010.5 |
| 20260830233049 | 18 | 198 | 0.0 | 0.0 | 0.00 | 0.03 | 0.00 | 74 | 1010.6 |
| 20260830231548 | 18 | 198 | 0.0 | 0.0 | 0.00 | 0.03 | 0.00 | 74 | 1010.7 |
| 20260830230046 | 18 | 198 | 0.0 | 0.0 | 0.00 | 0.03 | 0.00 | 74 | 1010.6 |
| 20260830224546 | 18 | 198 | 0.0 | 0.0 | 0.00 | 0.03 | 0.00 | 73 | 1010.7 |
| 20260830223042 | 18 | 198 | 0.0 | 0.0 | 0.00 | 0.03 | 0.00 | 73 | 1010.9 |
| 20260830221542 | 18 | 198 | 0.0 | 0.0 | 0.00 | 0.03 | 0.00 | 73 | 1011.0 |
| 20260830220044 | 18 | 198 | 0.0 | 0.0 | 0.00 | 0.03 | 0.03 | 74 | 1011.1 |